This demonstration page uses our WeatherBlox Daily Observations layout. Learn more.

Left ArrowRight Arrow

Hourly Observations for March 18, 2022

Temp ( °F °C ) Dew Point ( °F °C ) Humidity (%) Winds ( mph kmh ) Pressure ( in mb ) Visibility ( mi km ) Precip ( " mm )
12:53 am 00:53 Clear 34 1.1 24 -4.4 67 67 undefined N/A 29.93 1014 10 16 0.00 0.00
1:53 am 01:53 Clear 31 -0.6 23 -5 72 72 WSW 9 15 29.92 1013 10 16 0.00 0.00
2:53 am 02:53 Clear 30 -1.1 23 -5 75 75 SW 7 11 29.92 1013 10 16 0.00 0.00
3:53 am 03:53 Partly Cloudy 34 1.1 23 -5 64 64 W 6 9 29.91 1013 10 16 0.00 0.00
4:53 am 04:53 Clear 37 2.8 23 -5 57 57 WSW 9 15 29.89 1012 10 16 0.00 0.00
5:53 am 05:53 Mostly Cloudy 33 0.6 23 -5 66 66 SW 8 13 29.92 1013 10 16 0.00 0.00
6:53 am 06:53 Cloudy 35 1.7 25 -3.9 67 67 SW 7 11 29.93 1014 10 16 0.00 0.00
7:53 am 07:53 Cloudy 39 3.9 26 -3.3 60 60 SW 10 17 29.95 1014 10 16 0.00 0.00
8:53 am 08:53 Cloudy 40 4.4 27 -2.8 60 60 WSW 10 17 29.96 1015 10 16 0.00 0.00
9:53 am 09:53 Mostly Sunny 48 8.9 29 -1.7 48 48 W 17 28 29.95 1014 10 16 0.00 0.00
10:03 am 10:03 Sunny 48 8.9 28 -2.2 46 46 W 22 35 29.92 1013 10 16 0.00 0.00
10:53 am 10:53 Partly Cloudy 49 9.4 29 -1.7 46 46 WNW 20 31 29.96 1015 10 16 0.00 0.00
11:53 am 11:53 Mostly Cloudy 50 10 28 -2.2 43 43 W 20 31 29.96 1015 10 16 0.00 0.00
12:53 pm 12:53 Sunny 53 11.7 25 -3.9 34 34 WNW 18 30 29.96 1015 10 16 0.00 0.00
1:53 pm 13:53 Sunny 56 13.3 20 -6.7 24 24 NW 21 33 29.96 1015 10 16 0.00 0.00
2:53 pm 14:53 Mostly Cloudy 55 12.8 20 -6.7 25 25 WNW 16 26 29.96 1015 10 16 0.00 0.00
3:53 pm 15:53 Cloudy 54 12.2 22 -5.6 29 29 W 13 20 29.96 1015 10 16 0.00 0.00
4:53 pm 16:53 Cloudy 55 12.8 23 -5 29 29 W 7 11 29.95 1014 10 16 0.00 0.00
5:53 pm 17:53 Cloudy 53 11.7 24 -4.4 32 32 W 10 17 29.96 1014 10 16 0.00 0.00
6:53 pm 18:53 Cloudy 50 10 25 -3.9 38 38 WSW 6 9 29.94 1014 10 16 0.00 0.00
7:53 pm 19:53 Cloudy 43 6.1 26 -3.3 51 51 SSW 9 15 29.94 1014 10 16 0.00 0.00
8:53 pm 20:53 Mostly Cloudy 39 3.9 25 -3.9 57 57 SW 8 13 29.96 1015 10 16 0.00 0.00
9:53 pm 21:53 Cloudy 41 5 26 -3.3 55 55 SSW 9 15 29.94 1014 10 16 0.00 0.00
10:53 pm 22:53 Cloudy 39 3.9 24 -4.4 55 55 SSW 10 17 29.95 1014 10 16 0.00 0.00
11:53 pm 23:53 Mostly Cloudy 36 2.2 24 -4.4 62 62 Calm 29.95 1014 10 16 0.00 0.00

Powered by AerisWeather